Regional Weather Roundup
Issued by NWS

Home | Current Version | Previous Version | Text Only | Print | Product List | Glossary On
Versions: 1 2 3 4 5 6 7 8 9 10 11 12 13 14 15 16 17 18 19 20 21 22 23 24 25 26 27 28 29 30 31 32 33 34 35 36 37 38 39 40 41 42 43 44 45 46 47 48 49 50
000
ASUS43 KBIS 221020
RWRND

NORTH DAKOTA REGIONAL WEATHER ROUNDUP
NATIONAL WEATHER SERVICE BISMARCK ND
400 AM CST SAT NOV 22 2014

NOTE: "FAIR" INDICATES FEW OR NO CLOUDS BELOW 12,000 FEET WITH NO
SIGNIFICANT WEATHER AND/OR OBSTRUCTIONS TO VISIBILITY.


NDZ001>003-009>011-017-221100-
NORTHWEST NORTH DAKOTA

CITY           SKY/WX    TMP DP  RH WIND       PRES   REMARKS
WILLISTON      CLEAR     24  22  91 SW3       29.55F
MINOT          CLEAR     31  26  82 SW9       29.57F
MINOT AFB      CLEAR     27  26  96 W2        29.57S
$$

NDZ018>021-031>035-040>046-221100-
SOUTHWEST NORTH DAKOTA

CITY           SKY/WX    TMP DP  RH WIND       PRES   REMARKS
BISMARCK       CLEAR     22  18  85 CALM      29.64F
DICKINSON      CLEAR     31  23  72 S10       29.57F
GARRISON         N/A     29  27  92 CALM      29.58F
HETTINGER ARPT CLEAR     24  19  81 CALM      29.62F
$$

NDZ004>008-012>016-024-026-027-054-221100-
NORTHEAST NORTH DAKOTA

CITY           SKY/WX    TMP DP  RH WIND       PRES   REMARKS
GRAND FORKS    CLEAR     24  22  91 S7        29.61F WCI  16
GRND FRKS AFB  CLEAR     26  25  97 W6        29.61F WCI  19
DEVILS LAKE    CLEAR     28  19  69 W6        29.58R
$$

NDZ022-023-025-028>030-036>039-047>053-221100-
SOUTHEAST NORTH DAKOTA

CITY           SKY/WX    TMP DP  RH WIND       PRES   REMARKS
FARGO          CLEAR     27  22  81 S9        29.66F WCI  18
JAMESTOWN      CLEAR     30  24  78 SW7       29.63F
$$



USA.gov is the U.S. government's official web portal to all federal, state and local government web resources and services.